Year,Month,Day,Hour,Minute,Value (Times are PST for temperature in C)
2006,04,28,00,00,9.60
2006,04,28,00,01,9.60
2006,04,28,00,02,9.50
2006,04,28,00,03,9.50
2006,04,28,00,04,9.50
2006,04,28,00,05,9.40
2006,04,28,00,06,9.40
2006,04,28,00,07,9.40
2006,04,28,00,08,9.30
2006,04,28,00,09,9.30
2006,04,28,00,10,9.30
2006,04,28,00,11,9.20
2006,04,28,00,12,9.20
2006,04,28,00,13,9.20
2006,04,28,00,14,9.20
2006,04,28,00,15,9.20
2006,04,28,00,16,9.20
2006,04,28,00,17,9.10
2006,04,28,00,18,9.10
2006,04,28,00,19,9.10
2006,04,28,00,20,9.00
2006,04,28,00,21,9.00
2006,04,28,00,22,9.00
2006,04,28,00,23,9.00
2006,04,28,00,24,8.90
2006,04,28,00,25,8.90
2006,04,28,00,26,8.90
2006,04,28,00,27,8.90
2006,04,28,00,28,8.80
2006,04,28,00,29,8.80
2006,04,28,00,30,8.80
2006,04,28,00,31,8.70
2006,04,28,00,32,8.70
2006,04,28,00,33,8.70
2006,04,28,00,34,8.70
2006,04,28,00,35,8.70
2006,04,28,00,36,8.70
2006,04,28,00,37,8.70
2006,04,28,00,38,8.60
2006,04,28,00,39,8.60
2006,04,28,00,40,8.60
2006,04,28,00,41,8.50
2006,04,28,00,42,8.50
2006,04,28,00,43,8.50
2006,04,28,00,44,8.50
2006,04,28,00,45,8.40
2006,04,28,00,46,8.40
2006,04,28,00,47,8.40
2006,04,28,00,48,8.30
2006,04,28,00,49,8.30
2006,04,28,00,50,8.30
2006,04,28,00,51,8.20
2006,04,28,00,52,8.20
2006,04,28,00,53,8.20
2006,04,28,00,54,8.20
2006,04,28,00,55,8.20
2006,04,28,00,56,8.10
2006,04,28,00,57,8.10
2006,04,28,00,58,8.10
2006,04,28,00,59,8.00
2006,04,28,01,00,8.00
2006,04,28,01,01,8.00
2006,04,28,01,02,8.00
2006,04,28,01,03,8.00
2006,04,28,01,04,7.90
2006,04,28,01,05,7.90
2006,04,28,01,06,7.90
2006,04,28,01,07,7.90
2006,04,28,01,08,7.80
2006,04,28,01,09,7.80
2006,04,28,01,10,7.80
2006,04,28,01,11,7.80
2006,04,28,01,12,7.80
2006,04,28,01,13,7.80
2006,04,28,01,14,7.70
2006,04,28,01,15,7.70
2006,04,28,01,16,7.70
2006,04,28,01,17,7.70
2006,04,28,01,18,7.60
2006,04,28,01,19,7.60
2006,04,28,01,20,7.60
2006,04,28,01,21,7.60
2006,04,28,01,22,7.60
2006,04,28,01,23,7.60
2006,04,28,01,24,7.50
2006,04,28,01,25,7.50
2006,04,28,01,26,7.50
2006,04,28,01,27,7.50
2006,04,28,01,28,7.50
2006,04,28,01,29,7.40
2006,04,28,01,30,7.40
2006,04,28,01,31,7.40
2006,04,28,01,32,7.40
2006,04,28,01,33,7.40
2006,04,28,01,34,7.30
2006,04,28,01,35,7.30
2006,04,28,01,36,7.30
2006,04,28,01,37,7.30
2006,04,28,01,38,7.30
2006,04,28,01,39,7.30
2006,04,28,01,40,7.30
2006,04,28,01,41,7.30
2006,04,28,01,42,7.30
2006,04,28,01,43,7.30
2006,04,28,01,44,7.20
2006,04,28,01,45,7.20
2006,04,28,01,46,7.20
2006,04,28,01,47,7.20
2006,04,28,01,48,7.20
2006,04,28,01,49,7.10
2006,04,28,01,50,7.10
2006,04,28,01,51,7.10
2006,04,28,01,52,7.10
2006,04,28,01,53,7.10
2006,04,28,01,54,7.10
2006,04,28,01,55,7.00
2006,04,28,01,56,7.00
2006,04,28,01,57,7.00
2006,04,28,01,58,7.00
2006,04,28,01,59,7.00
2006,04,28,02,00,7.00
2006,04,28,02,01,7.00
2006,04,28,02,02,7.00
2006,04,28,02,03,7.00
2006,04,28,02,04,7.00
2006,04,28,02,05,7.00
2006,04,28,02,06,7.00
2006,04,28,02,07,7.00
2006,04,28,02,08,7.00
2006,04,28,02,09,7.00
2006,04,28,02,10,7.00
2006,04,28,02,11,6.90
2006,04,28,02,12,6.90
2006,04,28,02,13,6.90
2006,04,28,02,14,6.90
2006,04,28,02,15,6.90
2006,04,28,02,16,6.90
2006,04,28,02,17,6.90
2006,04,28,02,18,6.90
2006,04,28,02,19,6.90
2006,04,28,02,20,6.80
2006,04,28,02,21,6.80
2006,04,28,02,22,6.80
2006,04,28,02,23,6.80
2006,04,28,02,24,6.80
2006,04,28,02,25,6.80
2006,04,28,02,26,6.80
2006,04,28,02,27,6.80
2006,04,28,02,28,6.80
2006,04,28,02,29,6.80
2006,04,28,02,30,6.70
2006,04,28,02,31,6.70
2006,04,28,02,32,6.70
2006,04,28,02,33,6.70
2006,04,28,02,34,6.70
2006,04,28,02,35,6.70
2006,04,28,02,36,6.70
2006,04,28,02,37,6.60
2006,04,28,02,38,6.60
2006,04,28,02,39,6.60
2006,04,28,02,40,6.60
2006,04,28,02,41,6.60
2006,04,28,02,42,6.60
2006,04,28,02,43,6.60
2006,04,28,02,44,6.60
2006,04,28,02,45,6.60
2006,04,28,02,46,6.60
2006,04,28,02,47,6.60
2006,04,28,02,48,6.60
2006,04,28,02,49,6.60
2006,04,28,02,50,6.60
2006,04,28,02,51,6.50
2006,04,28,02,52,6.40
2006,04,28,02,53,6.40
2006,04,28,02,54,6.40
2006,04,28,02,55,6.40
2006,04,28,02,56,6.40
2006,04,28,02,57,6.40
2006,04,28,02,58,6.40
2006,04,28,02,59,6.40
2006,04,28,03,00,6.40
2006,04,28,03,01,6.40
2006,04,28,03,02,6.40
2006,04,28,03,03,6.40
2006,04,28,03,04,6.40
2006,04,28,03,05,6.40
2006,04,28,03,06,6.40
2006,04,28,03,07,6.40
2006,04,28,03,08,6.40
2006,04,28,03,09,6.40
2006,04,28,03,10,6.40
2006,04,28,03,11,6.40
2006,04,28,03,12,6.40
2006,04,28,03,13,6.40
2006,04,28,03,14,6.40
2006,04,28,03,15,6.40
2006,04,28,03,16,6.40
2006,04,28,03,17,6.30
2006,04,28,03,18,6.30
2006,04,28,03,19,6.30
2006,04,28,03,20,6.20
2006,04,28,03,21,6.20
2006,04,28,03,22,6.20
2006,04,28,03,23,6.20
2006,04,28,03,24,6.20
2006,04,28,03,25,6.20
2006,04,28,03,26,6.10
2006,04,28,03,27,6.10
2006,04,28,03,28,6.10
2006,04,28,03,29,6.10
2006,04,28,03,30,6.10
2006,04,28,03,31,6.10
2006,04,28,03,32,6.10
2006,04,28,03,33,6.10
2006,04,28,03,34,6.10
2006,04,28,03,35,6.10
2006,04,28,03,36,6.10
2006,04,28,03,37,6.10
2006,04,28,03,38,6.10
2006,04,28,03,39,6.10
2006,04,28,03,40,6.10
2006,04,28,03,41,6.10
2006,04,28,03,42,6.10
2006,04,28,03,43,6.10
2006,04,28,03,44,6.10
2006,04,28,03,45,6.10
2006,04,28,03,46,6.00
2006,04,28,03,47,6.00
2006,04,28,03,48,6.00
2006,04,28,03,49,6.00
2006,04,28,03,50,6.00
2006,04,28,03,51,5.90
2006,04,28,03,52,5.90
2006,04,28,03,53,5.90
2006,04,28,03,54,5.90
2006,04,28,03,55,5.90
2006,04,28,03,56,5.80
2006,04,28,03,57,5.80
2006,04,28,03,58,5.80
2006,04,28,03,59,5.80
2006,04,28,04,00,5.70
2006,04,28,04,01,5.70
2006,04,28,04,02,5.70
2006,04,28,04,03,5.70
2006,04,28,04,04,5.70
2006,04,28,04,05,5.70
2006,04,28,04,06,5.70
2006,04,28,04,07,5.70
2006,04,28,04,08,5.70
2006,04,28,04,09,5.70
2006,04,28,04,10,5.70
2006,04,28,04,11,5.70
2006,04,28,04,12,5.70
2006,04,28,04,13,5.70
2006,04,28,04,14,5.70
2006,04,28,04,15,5.70
2006,04,28,04,16,5.70
2006,04,28,04,17,5.70
2006,04,28,04,18,5.70
2006,04,28,04,19,5.70
2006,04,28,04,20,5.70
2006,04,28,04,21,5.60
2006,04,28,04,22,5.60
2006,04,28,04,23,5.60
2006,04,28,04,24,5.60
2006,04,28,04,25,5.60
2006,04,28,04,26,5.60
2006,04,28,04,27,5.60
2006,04,28,04,28,5.60
2006,04,28,04,29,5.50
2006,04,28,04,30,5.50
2006,04,28,04,31,5.50
2006,04,28,04,32,5.50
2006,04,28,04,33,5.50
2006,04,28,04,34,5.50
2006,04,28,04,35,5.50
2006,04,28,04,36,5.50
2006,04,28,04,37,5.40
2006,04,28,04,38,5.40
2006,04,28,04,39,5.40
2006,04,28,04,40,5.40
2006,04,28,04,41,5.40
2006,04,28,04,42,5.40
2006,04,28,04,43,5.40
2006,04,28,04,44,5.40
2006,04,28,04,45,5.40
2006,04,28,04,46,5.40
2006,04,28,04,47,5.40
2006,04,28,04,48,5.30
2006,04,28,04,49,5.30
2006,04,28,04,50,5.30
2006,04,28,04,51,5.30
2006,04,28,04,52,5.30
2006,04,28,04,53,5.30
2006,04,28,04,54,5.30
2006,04,28,04,55,5.30
2006,04,28,04,56,5.30
2006,04,28,04,57,5.30
2006,04,28,04,58,5.30
2006,04,28,04,59,5.30
2006,04,28,05,00,5.30
2006,04,28,05,01,5.30
2006,04,28,05,02,5.30
2006,04,28,05,03,5.30
2006,04,28,05,04,5.30
2006,04,28,05,05,5.30
2006,04,28,05,06,5.30
2006,04,28,05,07,5.30
2006,04,28,05,08,5.30
2006,04,28,05,09,5.30
2006,04,28,05,10,5.40
2006,04,28,05,11,5.40
2006,04,28,05,12,5.40
2006,04,28,05,13,5.40
2006,04,28,05,14,5.40
2006,04,28,05,15,5.30
2006,04,28,05,16,5.30
2006,04,28,05,17,5.30
2006,04,28,05,18,5.30
2006,04,28,05,19,5.30
2006,04,28,05,20,5.30
2006,04,28,05,21,5.30
2006,04,28,05,22,5.30
2006,04,28,05,23,5.30
2006,04,28,05,24,5.30
2006,04,28,05,25,5.30
2006,04,28,05,26,5.30
2006,04,28,05,27,5.30
2006,04,28,05,28,5.30
2006,04,28,05,29,5.30
2006,04,28,05,30,5.30
2006,04,28,05,31,5.30
2006,04,28,05,32,5.30
2006,04,28,05,33,5.30
2006,04,28,05,34,5.30
2006,04,28,05,35,5.30
2006,04,28,05,36,5.30
2006,04,28,05,37,5.30
2006,04,28,05,38,5.30
2006,04,28,05,39,5.30
2006,04,28,05,40,5.30
2006,04,28,05,41,5.30
2006,04,28,05,42,5.30
2006,04,28,05,43,5.30
2006,04,28,05,44,5.30
2006,04,28,05,45,5.30
2006,04,28,05,46,5.30
2006,04,28,05,47,5.30
2006,04,28,05,48,5.30
2006,04,28,05,49,5.30
2006,04,28,05,50,5.30
2006,04,28,05,51,5.30
2006,04,28,05,52,5.30
2006,04,28,05,53,5.30
2006,04,28,05,54,5.40
2006,04,28,05,55,5.40
2006,04,28,05,56,5.30
2006,04,28,05,57,5.30
2006,04,28,05,58,5.30
2006,04,28,05,59,5.30
2006,04,28,06,00,5.30
2006,04,28,06,01,5.30
2006,04,28,06,02,5.30
2006,04,28,06,03,5.30
2006,04,28,06,04,5.30
2006,04,28,06,05,5.30
2006,04,28,06,06,5.30
2006,04,28,06,07,5.40
2006,04,28,06,08,5.40
2006,04,28,06,09,5.40
2006,04,28,06,10,5.40
2006,04,28,06,11,5.40
2006,04,28,06,12,5.40
2006,04,28,06,13,5.40
2006,04,28,06,14,5.40
2006,04,28,06,15,5.40
2006,04,28,06,16,5.40
2006,04,28,06,17,5.40
2006,04,28,06,18,5.40
2006,04,28,06,19,5.30
2006,04,28,06,20,5.30
2006,04,28,06,21,5.30
2006,04,28,06,22,5.30
2006,04,28,06,23,5.30
2006,04,28,06,24,5.30
2006,04,28,06,25,5.30
2006,04,28,06,26,5.30
2006,04,28,06,27,5.30
2006,04,28,06,28,5.30
2006,04,28,06,29,5.30
2006,04,28,06,30,5.30
2006,04,28,06,31,5.30
2006,04,28,06,32,5.30
2006,04,28,06,33,5.40
2006,04,28,06,34,5.40
2006,04,28,06,35,5.40
2006,04,28,06,36,5.40
2006,04,28,06,37,5.40
2006,04,28,06,38,5.40
2006,04,28,06,39,5.50
2006,04,28,06,40,5.50
2006,04,28,06,41,5.50
2006,04,28,06,42,5.50
2006,04,28,06,43,5.50
2006,04,28,06,44,5.50
2006,04,28,06,45,5.50
2006,04,28,06,46,5.50
2006,04,28,06,47,5.60
2006,04,28,06,48,5.60
2006,04,28,06,49,5.60
2006,04,28,06,50,5.60
2006,04,28,06,51,5.60
2006,04,28,06,52,5.60
2006,04,28,06,53,5.60
2006,04,28,06,54,5.60
2006,04,28,06,55,5.60
2006,04,28,06,56,5.70
2006,04,28,06,57,5.70
2006,04,28,06,58,5.70
2006,04,28,06,59,5.70
2006,04,28,07,00,5.70
2006,04,28,07,01,5.70
2006,04,28,07,02,5.70
2006,04,28,07,03,5.70
2006,04,28,07,04,5.70
2006,04,28,07,05,5.70
2006,04,28,07,06,5.80
2006,04,28,07,07,5.80
2006,04,28,07,08,5.90
2006,04,28,07,09,5.90
2006,04,28,07,10,6.00
2006,04,28,07,11,6.10
2006,04,28,07,12,6.10
2006,04,28,07,13,6.20
2006,04,28,07,14,6.30
2006,04,28,07,15,6.40
2006,04,28,07,16,6.50
2006,04,28,07,17,6.60
2006,04,28,07,18,6.70
2006,04,28,07,19,6.80
2006,04,28,07,20,6.80
2006,04,28,07,21,6.90
2006,04,28,07,22,6.90
2006,04,28,07,23,7.00
2006,04,28,07,24,7.10
2006,04,28,07,25,7.10
2006,04,28,07,26,7.20
2006,04,28,07,27,7.30
2006,04,28,07,28,7.40
2006,04,28,07,29,7.50
2006,04,28,07,30,7.60
2006,04,28,07,31,7.80
2006,04,28,07,32,7.80
2006,04,28,07,33,7.90
2006,04,28,07,34,8.00
2006,04,28,07,35,8.00
2006,04,28,07,36,8.10
2006,04,28,07,37,8.20
2006,04,28,07,38,8.20
2006,04,28,07,39,8.20
2006,04,28,07,40,8.30
2006,04,28,07,41,8.40
2006,04,28,07,42,8.50
2006,04,28,07,43,8.50
2006,04,28,07,44,8.60
2006,04,28,07,45,8.70
2006,04,28,07,46,8.70
2006,04,28,07,47,8.80
2006,04,28,07,48,8.90
2006,04,28,07,49,8.90
2006,04,28,07,50,9.00
2006,04,28,07,51,9.10
2006,04,28,07,52,9.20
2006,04,28,07,53,9.30
2006,04,28,07,54,9.40
2006,04,28,07,55,9.50
2006,04,28,07,56,9.60
2006,04,28,07,57,9.70
2006,04,28,07,58,9.70
2006,04,28,07,59,9.90
2006,04,28,08,00,9.90
2006,04,28,08,01,10.10
2006,04,28,08,02,10.20
2006,04,28,08,03,10.30
2006,04,28,08,04,10.40
2006,04,28,08,05,10.60
2006,04,28,08,06,10.80
2006,04,28,08,07,11.00
2006,04,28,08,08,11.20
2006,04,28,08,09,11.30
2006,04,28,08,10,11.40
2006,04,28,08,11,11.50
2006,04,28,08,12,11.60
2006,04,28,08,13,11.70
2006,04,28,08,14,11.80
2006,04,28,08,15,11.80
2006,04,28,08,16,11.80
2006,04,28,08,17,11.90
2006,04,28,08,18,12.00
2006,04,28,08,19,12.10
2006,04,28,08,20,12.20
2006,04,28,08,21,12.20
2006,04,28,08,22,12.30
2006,04,28,08,23,12.30
2006,04,28,08,24,12.30
2006,04,28,08,25,12.30
2006,04,28,08,26,12.40
2006,04,28,08,27,12.40
2006,04,28,08,28,12.50
2006,04,28,08,29,12.50
2006,04,28,08,30,12.60
2006,04,28,08,31,12.60
2006,04,28,08,32,12.70
2006,04,28,08,33,12.80
2006,04,28,08,34,12.80
2006,04,28,08,35,12.90
2006,04,28,08,36,12.90
2006,04,28,08,37,13.00
2006,04,28,08,38,13.00
2006,04,28,08,39,13.10
2006,04,28,08,40,13.10
2006,04,28,08,41,13.20
2006,04,28,08,42,13.20
2006,04,28,08,43,13.30
2006,04,28,08,44,13.30
2006,04,28,08,45,13.30
2006,04,28,08,46,13.30
2006,04,28,08,47,13.30
2006,04,28,08,48,13.40
2006,04,28,08,49,13.40
2006,04,28,08,50,13.40
2006,04,28,08,51,13.50
2006,04,28,08,52,13.50
2006,04,28,08,53,13.50
2006,04,28,08,54,13.50
2006,04,28,08,55,13.50
2006,04,28,08,56,13.50
2006,04,28,08,57,13.50
2006,04,28,08,58,13.50
2006,04,28,08,59,13.50
2006,04,28,09,00,13.60
2006,04,28,09,01,13.60
2006,04,28,09,02,13.70
2006,04,28,09,03,13.70
2006,04,28,09,04,13.80
2006,04,28,09,05,13.80
2006,04,28,09,06,13.80
2006,04,28,09,07,13.90
2006,04,28,09,08,13.90
2006,04,28,09,09,13.90
2006,04,28,09,10,13.90
2006,04,28,09,11,14.00
2006,04,28,09,12,14.00
2006,04,28,09,13,14.00
2006,04,28,09,14,14.10
2006,04,28,09,15,14.10
2006,04,28,09,16,14.20
2006,04,28,09,17,14.20
2006,04,28,09,18,14.20
2006,04,28,09,19,14.20
2006,04,28,09,20,14.30
2006,04,28,09,21,14.30
2006,04,28,09,22,14.40
2006,04,28,09,23,14.40
2006,04,28,09,24,14.40
2006,04,28,09,25,14.40
2006,04,28,09,26,14.40
2006,04,28,09,27,14.50
2006,04,28,09,28,14.50
2006,04,28,09,29,14.50
2006,04,28,09,30,14.50
2006,04,28,09,31,14.50
2006,04,28,09,32,14.50
2006,04,28,09,33,14.60
2006,04,28,09,34,14.60
2006,04,28,09,35,14.60
2006,04,28,09,36,14.60
2006,04,28,09,37,14.70
2006,04,28,09,38,14.70
2006,04,28,09,39,14.70
2006,04,28,09,40,14.80
2006,04,28,09,41,14.80
2006,04,28,09,42,14.90
2006,04,28,09,43,14.90
2006,04,28,09,44,15.00
2006,04,28,09,45,15.00
2006,04,28,09,46,15.00
2006,04,28,09,47,15.00
2006,04,28,09,48,15.00
2006,04,28,09,49,15.00
2006,04,28,09,50,15.00
2006,04,28,09,51,15.10
2006,04,28,09,52,15.10
2006,04,28,09,53,15.20
2006,04,28,09,54,15.30
2006,04,28,09,55,15.40
2006,04,28,09,56,15.50
2006,04,28,09,57,15.60
2006,04,28,09,58,15.60
2006,04,28,09,59,15.70
2006,04,28,10,00,15.70
2006,04,28,10,01,15.60
2006,04,28,10,02,15.60
2006,04,28,10,03,15.60
2006,04,28,10,04,15.60
2006,04,28,10,05,15.60
2006,04,28,10,06,15.60
2006,04,28,10,07,15.70
2006,04,28,10,08,15.70
2006,04,28,10,09,15.80
2006,04,28,10,10,15.80
2006,04,28,10,11,15.90
2006,04,28,10,12,15.90
2006,04,28,10,13,15.90
2006,04,28,10,14,16.00
2006,04,28,10,15,16.10
2006,04,28,10,16,16.10
2006,04,28,10,17,16.20
2006,04,28,10,18,16.30
2006,04,28,10,19,16.30
2006,04,28,10,20,16.30
2006,04,28,10,21,16.30
2006,04,28,10,22,16.30
2006,04,28,10,23,16.20
2006,04,28,10,24,16.10
2006,04,28,10,25,15.90
2006,04,28,10,26,15.80
2006,04,28,10,27,15.80
2006,04,28,10,28,15.80
2006,04,28,10,29,15.80
2006,04,28,10,30,15.80
2006,04,28,10,31,15.80
2006,04,28,10,32,16.00
2006,04,28,10,33,16.10
2006,04,28,10,34,16.20
2006,04,28,10,35,16.30
2006,04,28,10,36,16.40
2006,04,28,10,37,16.40
2006,04,28,10,38,16.40
2006,04,28,10,39,16.30
2006,04,28,10,40,16.20
2006,04,28,10,41,16.20
2006,04,28,10,42,16.20
2006,04,28,10,43,16.20
2006,04,28,10,44,16.10
2006,04,28,10,45,16.00
2006,04,28,10,46,15.90
2006,04,28,10,47,15.90
2006,04,28,10,48,15.80
2006,04,28,10,49,15.80
2006,04,28,10,50,15.80
2006,04,28,10,51,15.90
2006,04,28,10,52,16.10
2006,04,28,10,53,16.20
2006,04,28,10,54,16.20
2006,04,28,10,55,16.20
2006,04,28,10,56,16.30
2006,04,28,10,57,16.40
2006,04,28,10,58,16.30
2006,04,28,10,59,16.30
2006,04,28,11,00,16.30
2006,04,28,11,01,16.30
2006,04,28,11,02,16.40
2006,04,28,11,03,16.40
2006,04,28,11,04,16.50
2006,04,28,11,05,16.60
2006,04,28,11,06,16.70
2006,04,28,11,07,16.70
2006,04,28,11,08,16.70
2006,04,28,11,09,16.60
2006,04,28,11,10,16.50
2006,04,28,11,11,16.40
2006,04,28,11,12,16.40
2006,04,28,11,13,16.30
2006,04,28,11,14,16.30
2006,04,28,11,15,16.30
2006,04,28,11,16,16.30
2006,04,28,11,17,16.40
2006,04,28,11,18,16.40
2006,04,28,11,19,16.50
2006,04,28,11,20,16.60
2006,04,28,11,21,16.70
2006,04,28,11,22,16.70
2006,04,28,11,23,16.70
2006,04,28,11,24,16.70
2006,04,28,11,25,16.70
2006,04,28,11,26,16.70
2006,04,28,11,27,16.70
2006,04,28,11,28,16.70
2006,04,28,11,29,16.70
2006,04,28,11,30,16.70
2006,04,28,11,31,16.70
2006,04,28,11,32,16.70
2006,04,28,11,33,16.70
2006,04,28,11,34,16.50
2006,04,28,11,35,16.40
2006,04,28,11,36,16.40
2006,04,28,11,37,16.40
2006,04,28,11,38,16.40
2006,04,28,11,39,16.40
2006,04,28,11,40,16.40
2006,04,28,11,41,16.40
2006,04,28,11,42,16.40
2006,04,28,11,43,16.40
2006,04,28,11,44,16.40
2006,04,28,11,45,16.50
2006,04,28,11,46,16.70
2006,04,28,11,47,16.80
2006,04,28,11,48,16.90
2006,04,28,11,49,17.10
2006,04,28,11,50,17.20
2006,04,28,11,51,17.30
2006,04,28,11,52,17.20
2006,04,28,11,53,17.20
2006,04,28,11,54,17.30
2006,04,28,11,55,17.20
2006,04,28,11,56,17.20
2006,04,28,11,57,17.20
2006,04,28,11,58,17.20
2006,04,28,11,59,17.20
2006,04,28,12,00,17.30
2006,04,28,12,01,17.40
2006,04,28,12,02,17.50
2006,04,28,12,03,17.60
2006,04,28,12,04,17.80
2006,04,28,12,05,17.80
2006,04,28,12,06,17.90
2006,04,28,12,07,17.80
2006,04,28,12,08,17.70
2006,04,28,12,09,17.60
2006,04,28,12,10,17.40
2006,04,28,12,11,17.30
2006,04,28,12,12,17.20
2006,04,28,12,13,17.10
2006,04,28,12,14,17.00
2006,04,28,12,15,17.10
2006,04,28,12,16,17.10
2006,04,28,12,17,17.00
2006,04,28,12,18,17.00
2006,04,28,12,19,17.00
2006,04,28,12,20,17.00
2006,04,28,12,21,16.90
2006,04,28,12,22,16.90
2006,04,28,12,23,16.90
2006,04,28,12,24,17.00
2006,04,28,12,25,17.00
2006,04,28,12,26,17.10
2006,04,28,12,27,17.10
2006,04,28,12,28,17.20
2006,04,28,12,29,17.30
2006,04,28,12,30,17.30
2006,04,28,12,31,17.30
2006,04,28,12,32,17.20
2006,04,28,12,33,17.00
2006,04,28,12,34,17.00
2006,04,28,12,35,17.00
2006,04,28,12,36,17.00
2006,04,28,12,37,17.00
2006,04,28,12,38,17.00
2006,04,28,12,39,16.90
2006,04,28,12,40,16.90
2006,04,28,12,41,16.90
2006,04,28,12,42,16.90
2006,04,28,12,43,16.90
2006,04,28,12,44,17.00
2006,04,28,12,45,17.00
2006,04,28,12,46,17.00
2006,04,28,12,47,17.00
2006,04,28,12,48,17.00
2006,04,28,12,49,16.90
2006,04,28,12,50,16.80
2006,04,28,12,51,16.60
2006,04,28,12,52,16.60
2006,04,28,12,53,16.50
2006,04,28,12,54,16.40
2006,04,28,12,55,16.40
2006,04,28,12,56,16.50
2006,04,28,12,57,16.60
2006,04,28,12,58,16.60
2006,04,28,12,59,16.60
2006,04,28,13,00,16.70
2006,04,28,13,01,16.70
2006,04,28,13,02,16.70
2006,04,28,13,03,16.70
2006,04,28,13,04,16.70
2006,04,28,13,05,16.80
2006,04,28,13,06,16.80
2006,04,28,13,07,16.90
2006,04,28,13,08,16.90
2006,04,28,13,09,16.90
2006,04,28,13,10,16.90
2006,04,28,13,11,16.90
2006,04,28,13,12,16.80
2006,04,28,13,13,16.80
2006,04,28,13,14,16.80
2006,04,28,13,15,16.80
2006,04,28,13,16,16.80
2006,04,28,13,17,16.90
2006,04,28,13,18,16.90
2006,04,28,13,19,17.00
2006,04,28,13,20,17.00
2006,04,28,13,21,17.00
2006,04,28,13,22,16.90
2006,04,28,13,23,16.90
2006,04,28,13,24,17.00
2006,04,28,13,25,17.00
2006,04,28,13,26,17.10
2006,04,28,13,27,17.20
2006,04,28,13,28,17.30
2006,04,28,13,29,17.40
2006,04,28,13,30,17.50
2006,04,28,13,31,17.50
2006,04,28,13,32,17.40
2006,04,28,13,33,17.50
2006,04,28,13,34,17.50
2006,04,28,13,35,17.50
2006,04,28,13,36,17.50
2006,04,28,13,37,17.60
2006,04,28,13,38,17.50
2006,04,28,13,39,17.50
2006,04,28,13,40,17.50
2006,04,28,13,41,17.40
2006,04,28,13,42,17.30
2006,04,28,13,43,17.40
2006,04,28,13,44,17.40
2006,04,28,13,45,17.30
2006,04,28,13,46,17.20
2006,04,28,13,47,17.00
2006,04,28,13,48,16.90
2006,04,28,13,49,16.80
2006,04,28,13,50,16.70
2006,04,28,13,51,16.70
2006,04,28,13,52,16.60
2006,04,28,13,53,16.50
2006,04,28,13,54,16.40
2006,04,28,13,55,16.40
2006,04,28,13,56,16.50
2006,04,28,13,57,16.60
2006,04,28,13,58,16.60
2006,04,28,13,59,16.60
2006,04,28,14,00,16.60
2006,04,28,14,01,16.70
2006,04,28,14,02,16.70
2006,04,28,14,03,16.60
2006,04,28,14,04,16.50
2006,04,28,14,05,16.40
2006,04,28,14,06,16.50
2006,04,28,14,07,16.60
2006,04,28,14,08,16.60
2006,04,28,14,09,16.70
2006,04,28,14,10,16.70
2006,04,28,14,11,16.70
2006,04,28,14,12,16.70
2006,04,28,14,13,16.60
2006,04,28,14,14,16.60
2006,04,28,14,15,16.60
2006,04,28,14,16,16.60
2006,04,28,14,17,16.60
2006,04,28,14,18,16.70
2006,04,28,14,19,16.80
2006,04,28,14,20,16.70
2006,04,28,14,21,16.70
2006,04,28,14,22,16.70
2006,04,28,14,23,16.60
2006,04,28,14,24,16.60
2006,04,28,14,25,16.60
2006,04,28,14,26,16.70
2006,04,28,14,27,16.70
2006,04,28,14,28,16.70
2006,04,28,14,29,16.70
2006,04,28,14,30,16.70
2006,04,28,14,31,16.70
2006,04,28,14,32,16.70
2006,04,28,14,33,16.70
2006,04,28,14,34,16.70
2006,04,28,14,35,16.70
2006,04,28,14,36,16.70
2006,04,28,14,37,16.70
2006,04,28,14,38,16.70
2006,04,28,14,39,16.70
2006,04,28,14,40,16.70
2006,04,28,14,41,16.70
2006,04,28,14,42,16.80
2006,04,28,14,43,16.90
2006,04,28,14,44,16.90
2006,04,28,14,45,17.00
2006,04,28,14,46,17.00
2006,04,28,14,47,17.10
2006,04,28,14,48,17.20
2006,04,28,14,49,17.20
2006,04,28,14,50,17.30
2006,04,28,14,51,17.30
2006,04,28,14,52,17.30
2006,04,28,14,53,17.20
2006,04,28,14,54,17.20
2006,04,28,14,55,17.10
2006,04,28,14,56,17.00
2006,04,28,14,57,17.00
2006,04,28,14,58,16.90
2006,04,28,14,59,16.70
2006,04,28,15,00,16.60
2006,04,28,15,01,16.60
2006,04,28,15,02,16.50
2006,04,28,15,03,16.40
2006,04,28,15,04,16.40
2006,04,28,15,05,16.40
2006,04,28,15,06,16.40
2006,04,28,15,07,16.40
2006,04,28,15,08,16.50
2006,04,28,15,09,16.50
2006,04,28,15,10,16.40
2006,04,28,15,11,16.40
2006,04,28,15,12,16.30
2006,04,28,15,13,16.30
2006,04,28,15,14,16.40
2006,04,28,15,15,16.40
2006,04,28,15,16,16.40
2006,04,28,15,17,16.40
2006,04,28,15,18,16.40
2006,04,28,15,19,16.40
2006,04,28,15,20,16.40
2006,04,28,15,21,16.40
2006,04,28,15,22,16.40
2006,04,28,15,23,16.40
2006,04,28,15,24,16.40
2006,04,28,15,25,16.40
2006,04,28,15,26,16.50
2006,04,28,15,27,16.60
2006,04,28,15,28,16.70
2006,04,28,15,29,16.70
2006,04,28,15,30,16.70
2006,04,28,15,31,16.70
2006,04,28,15,32,16.70
2006,04,28,15,33,16.70
2006,04,28,15,34,16.70
2006,04,28,15,35,16.70
2006,04,28,15,36,16.70
2006,04,28,15,37,16.70
2006,04,28,15,38,16.70
2006,04,28,15,39,16.70
2006,04,28,15,40,16.70
2006,04,28,15,41,16.70
2006,04,28,15,42,16.70
2006,04,28,15,43,16.70
2006,04,28,15,44,16.70
2006,04,28,15,45,16.70
2006,04,28,15,46,16.70
2006,04,28,15,47,16.70
2006,04,28,15,48,16.70
2006,04,28,15,49,16.70
2006,04,28,15,50,16.70
2006,04,28,15,51,16.70
2006,04,28,15,52,16.70
2006,04,28,15,53,16.70
2006,04,28,15,54,16.70
2006,04,28,15,55,16.80
2006,04,28,15,56,16.80
2006,04,28,15,57,16.80
2006,04,28,15,58,16.70
2006,04,28,15,59,16.70
2006,04,28,16,00,16.70
2006,04,28,16,01,16.70
2006,04,28,16,02,16.70
2006,04,28,16,03,16.70
2006,04,28,16,04,16.70
2006,04,28,16,05,16.70
2006,04,28,16,06,16.70
2006,04,28,16,07,16.70
2006,04,28,16,08,16.70
2006,04,28,16,09,16.70
2006,04,28,16,10,16.70
2006,04,28,16,11,16.70
2006,04,28,16,12,16.70
2006,04,28,16,13,16.70
2006,04,28,16,14,16.70
2006,04,28,16,15,16.70
2006,04,28,16,16,16.70
2006,04,28,16,17,16.70
2006,04,28,16,18,16.70
2006,04,28,16,19,16.70
2006,04,28,16,20,16.70
2006,04,28,16,21,16.70
2006,04,28,16,22,16.70
2006,04,28,16,23,16.60
2006,04,28,16,24,16.60
2006,04,28,16,25,16.60
2006,04,28,16,26,16.60
2006,04,28,16,27,16.70
2006,04,28,16,28,16.70
2006,04,28,16,29,16.80
2006,04,28,16,30,16.90
2006,04,28,16,31,16.80
2006,04,28,16,32,16.80
2006,04,28,16,33,16.80
2006,04,28,16,34,16.70
2006,04,28,16,35,16.70
2006,04,28,16,36,16.60
2006,04,28,16,37,16.50
2006,04,28,16,38,16.40
2006,04,28,16,39,16.40
2006,04,28,16,40,16.40
2006,04,28,16,41,16.40
2006,04,28,16,42,16.40
2006,04,28,16,43,16.40
2006,04,28,16,44,16.40
2006,04,28,16,45,16.50
2006,04,28,16,46,16.60
2006,04,28,16,47,16.60
2006,04,28,16,48,16.60
2006,04,28,16,49,16.70
2006,04,28,16,50,16.60
2006,04,28,16,51,16.70
2006,04,28,16,52,16.70
2006,04,28,16,53,16.70
2006,04,28,16,54,16.70
2006,04,28,16,55,16.80
2006,04,28,16,56,16.80
2006,04,28,16,57,16.90
2006,04,28,16,58,17.00
2006,04,28,16,59,16.90
2006,04,28,17,00,16.90
2006,04,28,17,01,16.80
2006,04,28,17,02,16.80
2006,04,28,17,03,16.70
2006,04,28,17,04,16.70
2006,04,28,17,05,16.70
2006,04,28,17,06,16.70
2006,04,28,17,07,16.60
2006,04,28,17,08,16.60
2006,04,28,17,09,16.60
2006,04,28,17,10,16.60
2006,04,28,17,11,16.60
2006,04,28,17,12,16.60
2006,04,28,17,13,16.50
2006,04,28,17,14,16.40
2006,04,28,17,15,16.60
2006,04,28,17,16,16.60
2006,04,28,17,17,16.60
2006,04,28,17,18,16.60
2006,04,28,17,19,16.60
2006,04,28,17,20,16.50
2006,04,28,17,21,16.40
2006,04,28,17,22,16.40
2006,04,28,17,23,16.40
2006,04,28,17,24,16.30
2006,04,28,17,25,16.30
2006,04,28,17,26,16.30
2006,04,28,17,27,16.20
2006,04,28,17,28,16.20
2006,04,28,17,29,16.20
2006,04,28,17,30,16.20
2006,04,28,17,31,16.30
2006,04,28,17,32,16.30
2006,04,28,17,33,16.30
2006,04,28,17,34,16.20
2006,04,28,17,35,16.10
2006,04,28,17,36,16.10
2006,04,28,17,37,16.00
2006,04,28,17,38,15.90
2006,04,28,17,39,15.80
2006,04,28,17,40,15.80